Tracking 35334 objects as of 12-Sep-2026
HD Live streaming from Space Station
objects crossing your sky now

AVUM DEB


AVUM DEB is no longer on orbit


NORAD ID: 57659
Int'l Code: 2013-021H
Launch date: May 7, 2013
Source: European Space Agency (ESA)
Launch site: FRENCH GUIANA (FRGUI)
Decay date: 2024-01-19

Note: This is SATELLITE DEBRIS
Your satellite tracking list
Your tracking list is empty




NASA's NSSDC Master Catalog

Two Line Element Set (TLE):
1 57659U 13021H   24015.07931323  .07059817  00000-0  13547+0 0  9995
2 57659  98.5797 301.0398 0042651 103.6240 256.9759 15.42063894 23557
Source of the keplerian elements: AFSPC